Regional Weather Roundup
Issued by NWS

Home | Current Version | Previous Version | Text Only | Print | Product List | Glossary Off
Versions: 1 2 3 4 5 6 7 8 9 10 11 12 13 14 15 16 17 18 19 20 21 22 23 24 25 26 27 28 29 30 31 32 33 34 35 36 37 38 39 40 41 42 43 44 45 46 47 48 49 50

000
ASUS45 KSLC 241310
RWRUT

UTAH REGIONAL WEATHER ROUNDUP
NATIONAL WEATHER SERVICE SALT LAKE CITY UT
600 AM MST SAT JAN 24 2015

UTZ001>011-023>025-241400-

NORTHERN UTAH

CITY           SKY/WX    TMP DP  RH WIND       PRES   REMARKS
BRIGHAM CITY   PTCLDY    25  22  87 CALM      30.48F
HILL AFB       PTCLDY    25  16  69 E9        30.44F WCI  15
LOGAN          CLEAR     19  16  88 N8        30.48F WCI   9
OGDEN          PTCLDY    25  18  74 S8        30.45F WCI  16
PROVO AIRPORT  PTCLDY    19  16  86 S7        30.50F WCI  10
SALT LAKE CITY PTCLDY    24  19  81 SE10      30.46F WCI  14
VERNAL         PTCLDY    16  10  77 W5        30.41F WCI   9
WENDOVER       MOCLDY    21  18  86 CALM      30.45F
HEBER CITY     PTCLDY    10   9  92 CALM      30.47F
WEST JORDAN    CLEAR     23  19  86 S6        30.46F WCI  16

$$

UTZ012>022-026-027-241400-

SOUTHERN/CENTRAL UTAH

CITY           SKY/WX    TMP DP  RH WIND       PRES   REMARKS
BLANDING       CLEAR     24  14  66 E3        30.43R
BRYCE CANYON   PTCLDY    16  12  84 NW7       30.40S WCI   6
CEDAR CITY     PTCLDY    20  14  77 CALM      30.44R
DELTA          PTCLDY    20  17  88 S5        30.48F WCI  13
MILFORD        CLEAR     21  17  84 N3        30.47R
MOAB/CYNLANDS  CLEAR     20  17  88 W3        30.41R
PRICE          CLEAR     20  13  74 NE3       30.36F
ST GEORGE      MOSUNNY   39  18  41 NE9       30.40R WCI  33
KANAB          CLEAR     32  18  55 NE5       30.40S WCI  27

$$

REGIONAL REPORTS     COLORADO/ARIZONA

CITY           SKY/WX    TMP DP  RH WIND       PRES   REMARKS
CRAIG, CO      MOCLDY     5   0  79 CALM      30.39F
GRAND JUNCTION PTCLDY    20  12  71 E5        30.43R WCI  13
RIFLE          PTCLDY    17   9  70 SE5       30.44S WCI  10
MONTROSE       PTCLDY    20   8  60 CALM      30.46R
CORTEZ         CLEAR     18  13  80 W3        30.34F
PAGE, AZ       NOT AVBL
GRAND CANYON   PTCLDY    33   7  33 NE13      30.32S WCI  24
KINGMAN        CLEAR     36  16  44 E6        30.26F WCI  31
FLAGSTAFF      CLEAR     29   6  38 E10       30.30R WCI  20

$$

REGIONAL REPORTS    NEVADA/IDAHO/WYOMING

CITY           SKY/WX    TMP DP  RH WIND       PRES   REMARKS
LAS VEGAS, NV  CLEAR     48  21  34 NE8       30.28F
ELY            CLEAR     16  14  92 S10       30.48S WCI   4
ELKO           CLEAR     21  18  88 N6        30.47F WCI  13
POCATELLO, ID  CLOUDY    28  27  96 NE6       30.44F WCI  22
BURLEY         FOG       29  28  96 CALM      30.45R VSB 3/4
EVANSTON, WY   PTCLDY    17  13  84 SW14      30.36F WCI   3
ROCK SPRINGS   CLOUDY    22  16  78 SW22      30.31F WCI   6

$$


USA.gov is the U.S. government's official web portal to all federal, state and local government web resources and services.